Regional Weather Roundup
Issued by NWS Little Rock, AR

Home | Current Version | Previous Version | Graphics & Text | Print | Product List | Glossary On
Versions: 1 2 3 4 5 6 7 8 9 10 11 12 13 14 15 16 17 18 19 20 21 22 23 24 25 26 27 28 29 30 31 32
000
ASUS44 KLZK 232005
RWRLZK

WEATHER ROUNDUP FOR ARKANSAS
NATIONAL WEATHER SERVICE LITTLE ROCK AR
300 PM CDT SUN JUL 23 2017

NOTE: "FAIR" INDICATES FEW OR NO CLOUDS BELOW 12,000 FEET WITH NO
SIGNIFICANT WEATHER AND/OR OBSTRUCTIONS TO VISIBILITY.

ARZ001-003-010-029-232100-
NORTHWEST ARKANSAS

CITY           SKY/WX    TMP DP  RH WIND       PRES   REMARKS
FAYETTEVILLE   TSTM      75  71  87 S15G23    29.92R VSB 1
FORT SMITH     SUNNY     98  72  42 W9        29.84F HX 107
HARRISON       MOSUNNY   93  67  42 NE9       29.91F HX  96
BENTONVILLE    MOSUNNY   88  66  48 NE3       29.94S HX  90
ROGERS         CLOUDY    88  69  53 N6        29.94S HX  92
SILOAM SPGS    CLOUDY    90  66  45 E5        29.91R HX  92
HIGHFILL       MOSUNNY   91  67  44 E6        29.93S HX  94
SPRINGDALE     MOSUNNY   88  68  51 N8        29.92F HX  91
$$

ARZ004-005-016-232100-
NORTH CENTRAL ARKANSAS

CITY           SKY/WX    TMP DP  RH WIND       PRES   REMARKS
BATESVILLE     CLOUDY    97  72  44 CALM      29.84F HX 105
FLIPPIN        CLOUDY    97  64  34 N7        29.85F HX  99
MTN HOME       MOSUNNY   93  70  46 CALM      29.87F HX  99
$$

ARZ040-041-232100-
WEST CENTRAL ARKANSAS

CITY           SKY/WX    TMP DP  RH WIND       PRES   REMARKS
MENA           MOSUNNY   97  68  38 CALM      29.87F HX 101
MOUNT IDA      MOSUNNY   98  62  30 VRB5      29.84F HX  99
$$

ARZ009-017-025-026-028-232100-
NORTHEAST ARKANSAS

CITY           SKY/WX    TMP DP  RH WIND       PRES   REMARKS
JONESBORO      PTSUNNY   95  76  53 VRB5      29.83F HX 108
WALNUT RIDGE   SUNNY     93  72  49 CALM      29.84F HX 100
BLYTHEVILLE    RAIN      88  80  77 NW6       29.84F HX 104
$$

ARZ022-023-033-042-044-232100-
CENTRAL ARKANSAS

CITY           SKY/WX    TMP DP  RH WIND       PRES   REMARKS
LITTLE ROCK    MOSUNNY   94  72  48 SE6       29.84F HX 102
N LITTLE ROCK    N/A     96  76  53 N5        29.82F HX 109
JACKSONVILLE   MOSUNNY   91  74  56 S7        29.83F HX 100
CONWAY           N/A     99  73  44 W6        29.81F HX 109
SEARCY         CLOUDY    84  74  71 SW5       29.86F THUNDER HX  91
HOT SPRINGS    SUNNY     97  72  44 S8        29.85F HX 105
RUSSELLVILLE   CLOUDY    94  75  54 N9        29.83F HX 105
CLINTON        FAIR      95  70  43 CALM      29.85F HX 101
$$

ARZ036-232100-
EAST ARKANSAS

CITY           SKY/WX    TMP DP  RH WIND       PRES   REMARKS
WEST MEMPHIS   SUNNY     93  78  61 VRB7      29.83F HX 108
$$

ARZ050-053-066-070-073-232100-
SOUTHWEST ARKANSAS

CITY           SKY/WX    TMP DP  RH WIND       PRES   REMARKS
ARKADELPHIA    FAIR      95  76  53 W6        29.86F HX 108
CAMDEN         CLOUDY    91  73  55 S6        29.87S HX 100
TEXARKANA      CLOUDY    93  73  52 E3        29.87F HX 102
EL DORADO      CLOUDY    83  75  77 E14G20    29.92R THUNDER HX  90
DE QUEEN       SUNNY     96  75  50 S8        29.84F HX 108
$$

ARZ056-057-069-232100-
SOUTHEAST ARKANSAS

CITY           SKY/WX    TMP DP  RH WIND       PRES   REMARKS
PINE BLUFF     MOSUNNY   93  75  55 S6        29.86S HX 104
STUTTGART      SUNNY     97  64  34 S9        29.86S HX  99
MONTICELLO     LGT RAIN  89  78  70 SW5       29.88S HX 103

$$






USA.gov is the U.S. government's official web portal to all federal, state and local government web resources and services.